Regional Weather Roundup
Issued by NWS

Home | Current Version | Previous Version | Graphics & Text | Print | Product List | Glossary On
Versions: 1 2 3 4 5 6 7 8 9 10 11 12 13 14 15 16 17 18 19 20 21 22 23 24 25 26 27 28 29 30 31 32 33 34 35 36 37 38 39 40 41 42 43 44 45 46 47 48 49 50
002
ASUS44 KMEG 071810
RWRTN
TENNESSEE HOURLY STATE WEATHER ROUNDUP
NATIONAL WEATHER SERVICE MEMPHIS TN
1200 PM CST WED DEC 07 2016

TNZ002-004-019-021-049-052-054-088>092-071900-
WEST TENNESSEE

CITY           SKY/WX    TMP DP  RH WIND       PRES   REMARKS
MEMPHIS INTL   CLOUDY    45  35  68 NE8       30.17F
NWS MEMPHIS      N/A     43 N/A N/A MISG        N/A
JACKSON        CLOUDY    43  34  70 E6        30.17F
DYERSBURG      SUNNY    N/A N/A N/A NE8       30.19F
UNION CITY     SUNNY     43  28  56 VRB5      30.19S
PARIS          SUNNY     41  28  60 VRB5      30.17F
HUNTINGDON     MOSUNNY   45  32  61 VRB5      30.16F
LEXINGTON      PTSUNNY   45  34  65 VRB7      30.14F
$$

TNZ008-025-027-028-033-062-065-066-071900-
NORTH MIDDLE TENNESSEE

CITY           SKY/WX    TMP DP  RH WIND       PRES   REMARKS
NASHVILLE      PTSUNNY   48  33  56 VRB7      30.15F
PORTLAND       SUNNY     43  32  65 NE7G13    30.14F
CLARKSVILLE    SUNNY     44  30  57 N6        30.16F
SMYRNA         PTSUNNY   43  34  70 N5        30.16F
GALLATIN       MOSUNNY   45  32  61 VRB3      30.17F
CROSSVILLE     PTSUNNY   42  34  73 N7        30.06F
$$

TNZ061-075-076-078-094-096-097-071900-
SOUTH MIDDLE TENNESSEE

CITY           SKY/WX    TMP DP  RH WIND       PRES   REMARKS
FAYETTEVILLE   CLOUDY    41  36  81 NW3       30.11F
TULLAHOMA      CLOUDY    39  36  87 N7        30.10F WCI  34
WINCHESTER     CLOUDY    43  36  75 N3        30.10S
MCMINNVILLE    CLOUDY    41  36  81 N7          N/A
COLUMBIA       CLOUDY    43  39  87 N6        30.12F
SHELBYVILLE    CLOUDY    43  37  81 N7        30.13F
$$

TNZ017-018-042-046-047-071900-
NORTHEAST TENNESSEE

CITY           SKY/WX    TMP DP  RH WIND       PRES   REMARKS
TRI CITIES     MOSUNNY   51  35  54 VRB5      30.04F
ELIZABETHTON   DRIZZLE   52  39  62 W6        30.03F
$$

TNZ012-013-036-069-073-074-071900-
CENTRAL EAST TENNESSEE

CITY           SKY/WX    TMP DP  RH WIND       PRES   REMARKS
KNOXVILLE      MOSUNNY   52  38  58 CALM      30.03F
OAK RIDGE      SUNNY     54  36  50 VRB5      30.06F
DOWNTOWN KNOXV SUNNY     55  39  54 VRB6      30.05F
GATLINBURG     MOSUNNY   48  37  66 CALM      30.04F
MORRISTOWN     SUNNY     50  36  57 E6        30.03F
JACKSBORO      SUNNY     48  37  66 NE9       30.09F
$$

TNZ083-085-099-071900-
SOUTHEAST TENNESSEE

CITY           SKY/WX    TMP DP  RH WIND       PRES   REMARKS
CHATTANOOGA    MOSUNNY   52  38  58 N5        30.06F
$$

SKY/WX REPORTED AS FAIR MEANS FEW OR NO CLOUDS BELOW
12 THOUSAND FEET.





USA.gov is the U.S. government's official web portal to all federal, state and local government web resources and services.